TimeMST,TemperatureF,Dew PointF,Humidity,Sea Level PressureIn,VisibilityMPH,Wind Direction,Wind SpeedMPH,Gust SpeedMPH,PrecipitationIn,Events,Conditions,WindDirDegrees,DateUTC
12:48 AM,24.1,19.9,84,30.25,-9999.0,Calm,Calm,-,N/A,,Unknown,0,2013-02-28 07:48:00
1:48 AM,23.0,19.0,85,30.23,-9999.0,Calm,Calm,-,N/A,,Unknown,0,2013-02-28 08:48:00
2:48 AM,19.0,15.1,85,30.24,-9999.0,Calm,Calm,-,N/A,,Unknown,0,2013-02-28 09:48:00
3:48 AM,18.0,15.1,88,30.25,-9999.0,West,5.8,-,N/A,,Unknown,280,2013-02-28 10:48:00
4:48 AM,18.0,15.1,88,30.25,-9999.0,WNW,5.8,-,N/A,,Unknown,290,2013-02-28 11:48:00
5:48 AM,19.9,16.0,85,30.26,-9999.0,WNW,8.1,-,N/A,,Unknown,290,2013-02-28 12:48:00
6:48 AM,19.9,16.0,85,30.26,-9999.0,West,8.1,-,N/A,,Unknown,280,2013-02-28 13:48:00
7:48 AM,26.1,19.9,78,30.25,-9999.0,West,8.1,-,N/A,,Unknown,280,2013-02-28 14:48:00
8:48 AM,30.9,23.0,72,30.24,-9999.0,West,6.9,-,N/A,,Unknown,280,2013-02-28 15:48:00
9:48 AM,37.0,21.0,52,30.24,-9999.0,West,12.7,-,N/A,,Unknown,280,2013-02-28 16:48:00
10:48 AM,42.1,19.0,40,30.23,-9999.0,West,12.7,-,N/A,,Unknown,280,2013-02-28 17:48:00
11:48 AM,41.0,19.0,41,30.23,-9999.0,West,11.5,-,N/A,,Unknown,270,2013-02-28 18:48:00
12:48 PM,43.0,17.1,35,30.21,-9999.0,NW,18.4,24.2,N/A,,Unknown,310,2013-02-28 19:48:00
1:48 PM,43.0,19.0,38,30.21,-9999.0,WNW,16.1,-,N/A,,Unknown,300,2013-02-28 20:48:00
2:48 PM,45.0,19.9,37,30.21,-9999.0,NW,17.3,21.9,N/A,,Unknown,310,2013-02-28 21:48:00
3:48 PM,45.0,21.9,40,30.23,-9999.0,NW,13.8,-,N/A,,Unknown,310,2013-02-28 22:48:00
4:48 PM,41.0,19.0,41,30.25,-9999.0,NNW,18.4,26.5,N/A,,Unknown,330,2013-02-28 23:48:00
5:48 PM,37.0,19.0,48,30.28,-9999.0,NW,11.5,-,N/A,,Unknown,320,2013-03-01 00:48:00
6:48 PM,36.0,18.0,48,30.29,-9999.0,NNW,13.8,-,N/A,,Unknown,330,2013-03-01 01:48:00
7:48 PM,26.1,18.0,71,30.32,-9999.0,NNW,4.6,-,N/A,,Unknown,340,2013-03-01 02:48:00
8:48 PM,23.0,17.1,78,30.33,-9999.0,Calm,Calm,-,N/A,,Unknown,0,2013-03-01 03:48:00
9:48 PM,24.1,19.0,81,30.32,-9999.0,WNW,4.6,-,N/A,,Unknown,300,2013-03-01 04:48:00
10:48 PM,21.0,17.1,85,30.32,-9999.0,West,3.5,-,N/A,,Unknown,280,2013-03-01 05:48:00
11:48 PM,19.0,15.1,85,30.32,-9999.0,Calm,Calm,-,N/A,,Unknown,0,2013-03-01 06:48:00